Regional Weather Roundup
Issued by NWS Upton, NY

Current Version | Previous Version | Graphics & Text | Print | Product List | Glossary Off
Versions: 1 2 3 4 5 6 7 8 9 10 11 12 13 14 15 16 17 18 19 20 21 22 23 24 25 26 27

000
ASUS41 KOKX 220305
RWROKX

Regional Weather Roundup
National Weather Service New York NY
1100 PM EDT SAT APR 21 2018

Note: "FAIR" indicates few or no clouds below 12,000 feet with no
significant weather and/or obstructions to visibility.

NYZ071-072-176-178-NJZ106-104-220400-
New York City Metro Area

CITY           SKY/WX    TMP DP  RH WIND       PRES   REMARKS
Central Park   FAIR      54  19  25 VRB3      30.36R
Bronx Bot Gard   N/A     52  21  30 N1        30.36S
Bronx Lehman C   N/A     54  21  28 NW7         N/A
LaGuardia Arpt FAIR      55  23  28 NW9       30.33R
Queens College   N/A     55  23  28 NW7         N/A
Kennedy Intl   MOCLDY    52  24  33 NW10      30.35R
Breezy Point     N/A     54 N/A N/A NW7         N/A
Brooklyn Coll    N/A     55  21  26 NW12        N/A
Staten Island    N/A     54  21  28 NW7         N/A
Newark/Liberty MOCLDY    55  27  34 NW10      30.34R
Teterboro      FAIR      53  21  28 N10G20    30.33R
$$

NYZ177-179-078>081-220400-
Long Island New York

CITY           SKY/WX    TMP DP  RH WIND       PRES   REMARKS
Jones Beach      N/A     45 N/A N/A NW6         N/A
Wantagh          N/A     45  39  81 NW2         N/A
Hempstead        N/A     48  39  71 W2        30.36S
Matinecock Pt    N/A     54 N/A N/A NW12        N/A
Farmingdale    FAIR      45  37  73 NW5       30.33S
MacArthur/ISP  FAIR      44  35  70 CALM      30.33R
Stony Brook      N/A     45  34  65 W1          N/A
Shirley        FAIR      41  36  82 CALM      30.34R
Mt Sinai Harb    N/A    N/A N/A N/A CALM        N/A
Westhampton    FAIR      33  26  75 CALM      30.35R
East Hampton   FAIR      38  32  77 CALM      30.32S
Southold         N/A     41  34  75 W3          N/A
Montauk          N/A     47  36  65 W3        30.32R
$$

NYZ052-065-067-220400-
Hudson Valley

CITY           SKY/WX    TMP DP  RH WIND       PRES   REMARKS
White Plains   FAIR      46  24  42 CALM      30.33R
Larchmont Harb   N/A     52 N/A N/A NW8         N/A
Croton On Huds   N/A     50 N/A N/A W5          N/A
Somers           N/A     48  19  32 NW3         N/A
Brewster         N/A     45  19  36 N3          N/A
Newburgh       CLEAR     46  19  34 CALM      30.35R
Montgomery     FAIR      40  28  62 NW5       30.34R
Otisville        N/A     43  23  45 N3          N/A
Warwick          N/A     39  30  70 W5          N/A
Suffern          N/A     48  21  34 NW3         N/A
Poughkeepsie   FAIR      41  21  44 N5        30.34R
Albany         FAIR      45  19  35 W10       30.35R
$$

NJZ001-105-106-008-010-013-015-019>022-104-220400-
New Jersey

CITY           SKY/WX    TMP DP  RH WIND       PRES   REMARKS
Newark/Liberty MOCLDY    55  27  34 NW10      30.34R
Teterboro      FAIR      53  21  28 N10G20    30.33R
Caldwell       FAIR      51  20  29 N3        30.35R
Somerville     FAIR      42  30  62 CALM      30.34R
Linden         FAIR      52  21  29 CALM      30.35S
Perth Amboy      N/A     54 N/A N/A NW8         N/A
Sussex         FAIR      40  27  59 CALM      30.36R
Andover          N/A     45  26  47 CALM      30.36R
Trenton        FAIR      50  28  42 NW3       30.35R
Millville      FAIR      45  40  82 CALM      30.37F
Atlantic City  FAIR      48  36  63 SW5       30.36F
Wrightstown    FAIR      50  30  46 W6        30.33
Toms River     FAIR      37  29  72 W3        30.36R
Belmar         FAIR      49  28  44 W5        30.36R
$$

PAZ047>061-062-071-220400-
Eastern Pennsylvania

CITY           SKY/WX    TMP DP  RH WIND       PRES   REMARKS
Philadelphia   MOCLDY    52  31  44 SW5       30.36S
Allentown      FAIR      48  24  39 N6        30.36R
Scranton       FAIR      44  24  45 NE3       30.36S
$$

CTZ002-004>006-009-010-012-RIZ004-006-007-MAZ004-011-015-220400-
Southern New England

 In CT

CITY           SKY/WX    TMP DP  RH WIND       PRES   REMARKS
Bradley Intl   FAIR      48  19  31 NW13      30.32R
Hartford       FAIR      52  18  26 NW12G18   30.32R
Danbury        FAIR      47  19  33 N6        30.34R
Wtrbury/Oxford FAIR      43  21  41 N10       30.33R
Norwalk Harbor   N/A     48 N/A N/A NW3         N/A
Bridgeport     FAIR      52  19  27 N9        30.33R
Meriden        FAIR      48  21  34 NW7       30.33R
New Haven      FAIR      51  21  30 NW5       30.32R
Chester        FAIR      48  18  29 NW8       30.31R
Groton         FAIR      49  21  33 NW7       30.30R
Willimantic    FAIR      51  20  29 NW7       30.31R

 In RI

CITY           SKY/WX    TMP DP  RH WIND       PRES   REMARKS
Providence     FAIR      51  23  33 NW8       30.29R
Block Island   FAIR      43  37  79 W12       30.31R
Westerly       FAIR      50  22  33 W5        30.30S

In MA

CITY           SKY/WX    TMP DP  RH WIND       PRES   REMARKS
Boston         FAIR      46  32  58 E3        30.30R
Worcester      FAIR      46  15  28 NW7       30.29R
Westfield      FAIR      47  19  33 NW9       30.31R
Provincetown   FAIR      40  36  86 SW3       30.29R
Nantucket      FAIR      41  38  89 SW6       30.28F
$$

ANZ330-335-338-340-345-350-353-355-220400-
Coastal Marine Observations


STATION/POSITION TIME  SKY/WX   TEMP    WIND        PRES    VSBY  WAVE
                                AIR SEA DIR/SP/G                  HT/PER
                 (UTC)          (F)     (DEG/KT/KT) (MB)    (MI)  (FT/S)
NY Harb Entrance 0250            48 44  250/  6/  8 1027.3          2/ 4
20 S Fire Island 0250            45 43  240/ 12/ 14 1027.0          2/ 4
23 SSW Montauk P 0250            44 43  250/ 12/ 12 1027.0          3/ 4
15 E Barnegat Li 0230               44                N/A           3/ 4
Hudson Canyon    0250            46 45  230/ 16/ 17 1027.3          2/ 4
Kings Point      0230            52 46   10/  9/ 11 1028.1
Execution Rocks  NOT AVBL
Western LI Sound NOT AVBL
Central LI Sound 0230            46     240/  6/  8   N/A           1
Robbins Reef     0236            56     320/  8/ 11 1028.0
$$


>>>>>>>>>>>>>>>>>>>>>>>>>>>> KEY <<<<<<<<<<<<<<<<<<<<<<<<<<<
>                                                          <
>     SKY/WX - Sky Condition/Present Weather               <
>     TMP    - Temperature in Fahrenheit                   <
>     DP     - Dew Point in Fahrenheit                     <
>     RH     - Relative Humidity in Percent                <
>     WIND   - Direction (from) and Speed in MPH           <
>     PRES   - Mean Sea Level Pressure (inches of Hg)      <
>     WCI    - Wind Chill Index                            <
>     VSB    - Visibility in Miles                         <
>     HX     - Heat Index                                  <
>     TC     - Temperature in Celsius                      <
>     VRB    - Varibale Wind Direction                     <
>                                                          <
>>>>>>>>>>>>>>>>>>>>>>>>>>>> KEY <<<<<<<<<<<<<<<<<<<<<<<<<<<




USA.gov is the U.S. government's official web portal to all federal, state and local government web resources and services.